DW1824 Weather Reports


time (UTC)temp
F
wind
direction
speed
knots
gust
knots
rain 1hr
in
rain 24hr
in
rain mn
in
humidity
%
barometer
mb
20240420172331 78 89 0.0 2.6 0.00 0.00 0.00 89 1015.2
20240420170318 78 136 0.0 0.9 0.00 0.00 0.00 91 1015.5
20240420165327 77 114 0.0 0.0 0.00 0.00 0.00 91 1015.5
20240420164318 77 137 0.9 0.9 0.00 0.00 0.00 90 1015.6
20240420163325 77 117 0.0 2.6 0.00 0.00 0.00 90 1015.8
20240420162314 77 142 1.7 3.5 0.00 0.00 0.00 89 1015.9
20240420161323 77 128 0.0 2.6 0.00 0.00 0.00 89 1015.9
20240420160339 78 147 0.0 2.6 0.00 0.00 0.00 89 1015.8
20240420155331 77 137 1.7 3.5 0.00 0.00 0.00 90 1015.9
20240420154320 77 153 1.7 2.6 0.00 0.00 0.00 90 1016.0
20240420153321 77 171 1.7 4.3 0.00 0.00 0.00 91 1016.0
20240420152331 76 145 2.6 3.5 0.00 0.00 0.00 90 1016.2
20240420151324 76 99 0.9 5.2 0.00 0.00 0.00 90 1016.3
20240420145348 77 142 0.9 2.6 0.00 0.00 0.00 91 1016.3
20240420144315 76 154 2.6 6.1 0.00 0.00 0.00 92 1015.9
20240420143322 76 151 1.7 7.0 0.00 0.00 0.00 92 1016.0
20240420142312 76 137 1.7 3.5 0.00 0.00 0.00 94 1016.1
20240420140315 75 118 0.9 6.1 0.00 0.00 0.00 96 1015.9
20240420135329 74 132 1.7 5.2 0.00 0.00 0.00 96 1016.0
20240420134339 74 122 1.7 4.3 0.00 0.00 0.00 96 1016.0
20240420133340 73 136 1.7 3.5 0.00 0.00 0.00 97 1016.1
20240420132331 73 99 1.7 3.5 0.00 0.00 0.00 97 1016.0
20240420131322 72 135 0.9 2.6 0.00 0.00 0.00 97 1016.0
20240420130328 72 128 0.9 3.5 0.00 0.00 0.00 96 1016.0
20240420125317 72 143 0.9 4.3 0.00 0.00 0.00 97 1015.8
20240420124326 72 137 0.9 3.5 0.00 0.00 0.00 97 1015.9
20240420123327 72 129 0.9 2.6 0.00 0.00 0.00 96 1016.0
20240420122322 71 140 0.9 2.6 0.00 0.00 0.00 96 1016.0
20240420121333 71 111 0.9 1.7 0.00 0.00 0.00 96 1015.8
20240420120331 71 147 0.9 3.5 0.00 0.00 0.00 96 1015.6
20240420115324 71 100 0.9 2.6 0.00 0.00 0.00 96 1015.5
20240420114316 71 146 1.7 2.6 0.00 0.00 0.00 96 1015.5
20240420113317 71 135 1.7 2.6 0.00 0.00 0.00 96 1015.5
20240420112326 71 33 0.0 0.0 0.00 0.00 0.00 96 1015.3
20240420111320 71 33 0.0 0.0 0.00 0.00 0.00 96 1015.4
20240420110322 71 33 0.0 0.0 0.00 0.00 0.00 96 1015.4
20240420105312 71 33 0.0 0.0 0.00 0.00 0.00 96 1015.4
20240420104323 71 33 0.0 0.0 0.00 0.00 0.00 96 1015.5
20240420103350 72 33 0.0 0.0 0.00 0.00 0.00 96 1015.6
20240420102318 71 33 0.0 0.0 0.00 0.00 0.00 96 1015.6
20240420101348 71 33 0.0 0.0 0.00 0.00 0.00 96 1015.4
20240420100330 72 33 0.0 0.0 0.00 0.00 0.00 96 1015.5
20240420095321 72 33 0.0 0.0 0.00 0.00 0.00 96 1015.4
20240420094314 72 33 0.0 0.0 0.00 0.00 0.00 96 1015.6
20240420093336 72 33 0.0 0.0 0.00 0.00 0.00 96 1015.6
20240420092325 72 33 0.0 0.0 0.00 0.00 0.00 95 1015.9
20240420091317 72 33 0.0 0.0 0.00 0.00 0.00 95 1015.9
20240420085323 72 33 0.0 0.0 0.00 0.00 0.00 95 1016.1
20240420083325 72 12 0.0 0.0 0.00 0.00 0.00 95 1016.3
20240420082320 72 110 0.0 0.0 0.00 0.00 0.00 95 1016.4
20240420081329 73 110 0.0 0.0 0.00 0.00 0.00 95 1016.3
20240420075313 73 110 0.0 0.0 0.00 0.00 0.00 95 1016.0
20240420074327 73 110 0.0 0.0 0.00 0.00 0.00 95 1016.0
20240420073329 73 110 0.0 0.0 0.00 0.00 0.00 95 1015.8
20240420072320 73 131 0.0 0.0 0.00 0.00 0.00 95 1016.1
20240420071329 72 122 1.7 1.7 0.00 0.00 0.00 95 1016.0
20240420070334 73 129 0.0 0.0 0.00 0.00 0.00 94 1015.9
20240420065344 73 129 0.0 0.0 0.00 0.00 0.00 94 1016.2
20240420064313 73 129 0.0 0.0 0.00 0.00 0.00 94 1016.1
20240420063316 73 130 0.0 0.0 0.00 0.00 0.00 94 1016.0
20240420062324 74 129 0.0 0.0 0.00 0.00 0.00 94 1016.1
20240420061318 74 129 0.0 0.0 0.00 0.00 0.00 94 1016.4
20240420060320 74 129 0.0 0.0 0.00 0.00 0.00 94 1016.6
20240420055331 74 129 0.0 0.0 0.00 0.00 0.00 93 1016.4
20240420054341 74 130 0.0 0.0 0.00 0.00 0.00 93 1016.6
20240420053326 74 130 0.0 0.0 0.00 0.00 0.00 93 1016.6
20240420052313 74 129 0.0 0.0 0.00 0.00 0.00 93 1016.6
20240420051322 74 129 0.0 0.0 0.00 0.00 0.00 93 1016.5
20240420050324 74 129 0.0 2.6 0.00 0.00 0.00 92 1016.5
20240420045338 74 128 1.7 2.6 0.00 0.00 0.00 92 1016.4
20240420044326 74 139 1.7 3.5 0.00 0.00 0.00 92 1016.4
20240420043327 74 143 1.7 4.3 0.00 0.00 0.00 92 1016.2
20240420042318 74 139 2.6 3.5 0.00 0.00 0.00 92 1015.9
20240420041313 74 147 2.6 4.3 0.00 0.00 0.00 92 1015.8
20240420040316 74 147 1.7 2.6 0.00 0.00 0.00 91 1015.8
20240420035324 75 144 0.9 1.7 0.00 0.00 0.00 91 1015.8
20240420033328 75 141 1.7 3.5 0.00 0.00 0.00 90 1015.6
20240420030349 76 143 2.6 4.3 0.00 0.00 0.00 89 1015.2
20240420024321 76 168 1.7 4.3 0.00 0.00 0.00 89 1015.1
20240420022319 77 145 1.7 3.5 0.00 0.00 0.00 89 1014.8
20240420021327 77 126 0.9 2.6 0.00 0.00 0.00 88 1014.8
20240420020312 78 142 1.7 3.5 0.00 0.00 0.00 87 1014.5
20240420015324 79 153 1.7 6.1 0.00 0.00 0.00 87 1014.4
20240420014313 79 147 2.6 6.1 0.00 0.00 0.00 86 1014.3
20240420013315 79 133 2.6 7.8 0.00 0.00 0.00 86 1014.1
20240420012329 79 122 1.7 3.5 0.00 0.00 0.00 87 1014.0
20240420011318 79 128 0.0 1.7 0.00 0.00 0.00 87 1014.0
20240420010319 79 49 0.0 1.7 0.00 0.00 0.00 86 1013.9
20240420004330 80 53 0.9 2.6 0.00 0.00 0.00 85 1013.9
20240420003325 80 41 1.7 3.5 0.00 0.00 0.00 85 1014.0
20240420002331 80 39 0.0 1.7 0.00 0.00 0.00 85 1014.0
20240420001315 80 37 0.0 1.7 0.00 0.00 0.00 84 1014.0
20240420000317 81 22 0.0 1.7 0.00 0.00 0.00 84 1013.9
20240419235324 81 36 0.0 4.3 0.00 0.00 0.00 83 1013.9
20240419234318 81 34 0.9 3.5 0.00 0.00 0.00 83 1013.9
20240419233331 81 41 0.9 7.8 0.00 0.00 0.00 83 1013.9
20240419232319 81 83 0.9 3.5 0.00 0.00 0.00 82 1013.9
20240419231328 82 79 0.0 7.0 0.00 0.00 0.00 82 1014.0
20240419225328 82 64 0.9 7.0 0.00 0.00 0.00 82 1014.1
20240419224317 82 58 0.9 4.3 0.00 0.00 0.00 82 1014.2
20240419223319 82 12 1.7 5.2 0.00 0.00 0.00 82 1014.3
20240419222332 81 45 0.0 4.3 0.00 0.00 0.00 82 1014.4
20240419221322 81 28 1.7 4.3 0.00 0.00 0.00 82 1014.4
20240419220324 82 29 0.0 3.5 0.00 0.00 0.00 82 1014.4
20240419215314 82 43 2.6 5.2 0.00 0.00 0.00 82 1014.4
20240419214328 82 45 1.7 4.3 0.00 0.00 0.00 83 1014.4
20240419213327 82 31 3.5 5.2 0.00 0.00 0.00 82 1014.4
20240419212336 82 2 2.6 5.2 0.00 0.00 0.00 81 1014.4
20240419211326 82 12 0.9 3.5 0.00 0.00 0.00 80 1014.4
20240419210332 83 57 0.0 3.5 0.00 0.00 0.00 79 1014.4
20240419205321 82 353 0.9 7.0 0.00 0.00 0.00 81 1014.5
20240419204331 83 12 0.9 5.2 0.00 0.00 0.00 81 1014.5
20240419202337 82 33 3.5 7.0 0.00 0.00 0.00 81 1014.7
20240419201326 82 24 1.7 4.3 0.00 0.00 0.00 81 1014.8
20240419200327 82 2 0.9 5.2 0.00 0.00 0.00 80 1015.0
20240419195337 82 28 0.0 3.5 0.00 0.00 0.00 80 1015.2
20240419194327 83 74 0.9 4.3 0.00 0.00 0.00 79 1015.3
20240419193352 83 80 0.9 4.3 0.00 0.00 0.00 78 1015.3
20240419192320 83 31 0.9 4.3 0.00 0.00 0.00 80 1015.4
20240419191331 82 28 0.9 3.5 0.00 0.00 0.00 80 1015.4
20240419190332 81 56 0.0 2.6 0.00 0.00 0.00 82 1015.6
20240419185326 81 20 0.0 0.9 0.00 0.00 0.00 82 1015.7
20240419184336 81 20 0.0 1.7 0.00 0.00 0.00 82 1015.8
20240419183318 81 50 0.0 2.6 0.00 0.00 0.00 82 1016.0
20240419182328 81 42 0.9 3.5 0.00 0.00 0.00 81 1015.9
20240419181324 81 86 0.0 1.7 0.00 0.00 0.00 82 1015.9
20240419180347 80 33 0.0 1.7 0.00 0.00 0.00 84 1015.9
20240419175314 80 56 0.9 1.7 0.00 0.00 0.00 82 1016.3
20240419174326 81 41 0.0 2.6 0.00 0.00 0.00 82 1016.1
20240419173332 81 47 1.7 4.3 0.00 0.00 0.00 81 1016.3